Regional Weather Roundup
Issued by NWS

Home | Current Version | Previous Version | Graphics & Text | Print | Product List | Glossary On
Versions: 1 2 3 4 5 6 7 8 9 10 11 12 13 14 15 16 17 18 19 20 21 22 23 24 25 26 27 28 29 30 31 32 33 34 35 36 37 38 39 40 41 42 43 44 45 46 47 48 49 50
000
ASUS43 KFSD 220710
RWRSD

WEATHER ROUNDUP FOR SOUTH DAKOTA
NATIONAL WEATHER SERVICE SIOUX FALLS SD
200 AM CDT SUN APR 22 2018

NOTE: "FAIR" INDICATES FEW OR NO CLOUDS BELOW 12,000 FEET WITH NO
SIGNIFICANT WEATHER AND/OR OBSTRUCTIONS TO VISIBILITY.


SDZ001>005-009-010-012>017-220800-
NORTHWEST AND NORTH CENTRAL SOUTH DAKOTA

CITY           SKY/WX    TMP DP  RH WIND       PRES   REMARKS
BUFFALO          N/A     40  35  83 S13G23    30.01
FAITH            N/A     37  36  96 S18       30.13F
MOBRIDGE       PTCLDY    36  32  85 SE8       30.19S
$$

SDZ012>016-024>037-041>051-057-063-072>074-220800-
SOUTHWEST AND SOUTH CENTRAL SOUTH DAKOTA

CITY           SKY/WX    TMP DP  RH WIND       PRES   REMARKS
RAPID CTY ARPT CLEAR     37  34  89 SE14      30.12F
PIERRE         CLEAR     34  32  92 SE8       30.22S WCI  27
CUSTER         FOG       33  31  92 W7        30.13F VSB 1/2 WCI  27
ELLSWORTH AFB  CLEAR    N/A N/A N/A S12       30.11S
PHILIP         PTCLDY    36  34  92 E6        30.18F
PINE RIDGE     CLEAR     39  36  89 S14G21    30.16F
SPEARFISH      FAIR      39  32  75 S5        30.08S
WINNER         PTSUNNY   41  34  76 S9        30.24F
$$

SDZ004>011-016>023-039-040-220800-
NORTHEAST SOUTH DAKOTA

CITY           SKY/WX    TMP DP  RH WIND       PRES   REMARKS
ABERDEEN       CLEAR     33  30  88 SE9       30.27F WCI  25
WATERTOWN      CLOUDY    37  28  70 S6        30.28F
BROOKINGS      CLEAR     35  29  78 SE9       30.29S WCI  28
SISSETON         N/A     36  31  82 S3        30.28F
$$

SDZ017-020-022-023-036>040-048>070-220800-
SOUTHEAST SOUTH DAKOTA

CITY           SKY/WX    TMP DP  RH WIND       PRES   REMARKS
SIOUX FALLS    CLOUDY    39  33  79 E5        30.29S
HURON          NOT AVBL
CHAMBERLAIN    PTCLDY    37  37 100 SE6       30.26S FOG
MITCHELL       CLOUDY    39  36  89 CALM      30.28S
YANKTON        CLOUDY    44  37  76 NE3       30.28F
$$

ABBREVIATIONS USED IN REMARKS
   TC - TEMPERATURE IN CELSIUS
  WCI - WIND CHILL INDEX
   HX - HEAT INDEX
  VSB - VISIBILITY




USA.gov is the U.S. government's official web portal to all federal, state and local government web resources and services.